Overview Statistics Trail Chart Weather Telemetry Raw packets
 

This is the latest recevied weather packets stored in our database for station/object 4S6DRJ-13. If no packets are shown the sender has not sent any weather packets the latest 10 day(s).

<< 122 123 124 125 126 127 128 >>
Time Temp. Humidity Pressure Rain* Wind** Luminosity Snow
1788274919 28.33° C 82% 1010.7 hPa 0 mm 0.89 m/s, 241° 0 W/m² -
1788274858 28.33° C 82% 1010.7 hPa 0 mm 1.34 m/s, 260° 0 W/m² -
1788274797 28.33° C 82% 1010.6 hPa 0 mm 0.89 m/s, 242° 0 W/m² -
1788274736 28.33° C 82% 1010.6 hPa 0 mm 2.68 m/s, 206° 0 W/m² -
1788274675 28.33° C 82% 1010.6 hPa 0 mm 0.89 m/s, 237° 0 W/m² -
1788274614 28.33° C 82% 1010.6 hPa 0 mm 1.34 m/s, 205° 0 W/m² -
1788274553 28.33° C 82% 1010.4 hPa 0 mm 1.34 m/s, 219° 0 W/m² -
1788274492 28.33° C 81% 1010.6 hPa 0 mm 0.89 m/s, 220° 0 W/m² -
1788274431 28.33° C 81% 1010.5 hPa 0 mm 1.79 m/s, 85° 0 W/m² -
1788274370 28.33° C 81% 1010.5 hPa 0 mm 1.79 m/s, 87° 0 W/m² -
1788274309 28.33° C 81% 1010.6 hPa 0 mm 0.89 m/s, 219° 0 W/m² -
1788274248 28.33° C 81% 1010.5 hPa 0 mm 0.89 m/s, 244° 0 W/m² -
1788274188 28.33° C 81% 1010.4 hPa 0 mm 0.89 m/s, 233° 0 W/m² -
1788274126 28.33° C 81% 1010.5 hPa 0 mm 1.79 m/s, 204° 0 W/m² -
1788274065 28.33° C 81% 1010.4 hPa 0 mm 1.79 m/s, 183° 0 W/m² -
1788274004 28.33° C 81% 1010.5 hPa 0 mm 1.79 m/s, 216° 0 W/m² -
1788273943 28.33° C 81% 1010.4 hPa 0 mm 1.34 m/s, 220° 0 W/m² -
1788273882 28.33° C 82% 1010.6 hPa 0 mm 2.24 m/s, 239° 0 W/m² -
1788273821 28.33° C 82% 1010.5 hPa 0 mm 1.79 m/s, 243° 0 W/m² -
1788273760 28.33° C 82% 1010.6 hPa 0 mm 0.89 m/s, 316° 0 W/m² -
1788273699 28.33° C 82% 1010.4 hPa 0 mm 0.89 m/s, 236° 0 W/m² -
1788273638 28.89° C 82% 1010.5 hPa 0 mm 1.79 m/s, 243° 0 W/m² -
1788273577 28.89° C 82% 1010.5 hPa 0 mm 1.79 m/s, 242° 0 W/m² -
1788273516 28.89° C 82% 1010.4 hPa 0 mm 0.45 m/s, 229° 0 W/m² -
1788273456 28.33° C 82% 1010.5 hPa 0 mm 1.34 m/s, 194° 0 W/m² -

* Rain latest hour (hover to see other rain measurements)
** Current wind speed in m/s (hover to see current wind gust speed)